TimeEDT,TemperatureF,Dew PointF,Humidity,Sea Level PressureIn,VisibilityMPH,Wind Direction,Wind SpeedMPH,Gust SpeedMPH,PrecipitationIn,Events,Conditions,WindDirDegrees,DateUTC
12:15 AM,75.2,69.8,83,29.99,10.0,ENE,5.8,-,N/A,,Clear,60,2013-08-30 04:15:00
12:35 AM,75.2,69.8,83,30.00,10.0,ENE,6.9,-,N/A,,Clear,70,2013-08-30 04:35:00
12:55 AM,75.2,69.8,83,29.99,9.0,ENE,6.9,-,N/A,,Clear,70,2013-08-30 04:55:00
1:15 AM,75.2,69.8,83,30.00,10.0,ENE,6.9,-,N/A,,Clear,60,2013-08-30 05:15:00
1:35 AM,73.4,69.8,88,30.00,8.0,ENE,5.8,-,N/A,,Clear,60,2013-08-30 05:35:00
1:55 AM,73.4,68.0,83,30.00,7.0,NE,5.8,-,N/A,,Clear,40,2013-08-30 05:55:00
2:15 AM,73.4,68.0,83,30.01,8.0,ENE,5.8,-,N/A,,Clear,60,2013-08-30 06:15:00
2:35 AM,73.4,68.0,83,30.01,8.0,NE,4.6,-,N/A,,Clear,40,2013-08-30 06:35:00
2:55 AM,73.4,68.0,83,30.00,9.0,NE,4.6,-,N/A,,Clear,50,2013-08-30 06:55:00
3:15 AM,73.4,66.2,78,30.01,9.0,NE,5.8,-,N/A,,Clear,40,2013-08-30 07:15:00
3:35 AM,71.6,66.2,83,30.00,7.0,NE,4.6,-,N/A,,Clear,50,2013-08-30 07:35:00
3:55 AM,71.6,66.2,83,30.00,7.0,NE,4.6,-,N/A,,Clear,40,2013-08-30 07:55:00
4:15 AM,71.6,66.2,83,30.01,7.0,NE,5.8,-,N/A,,Clear,40,2013-08-30 08:15:00
4:35 AM,71.6,66.2,83,30.00,7.0,NE,6.9,-,N/A,,Clear,40,2013-08-30 08:35:00
4:55 AM,71.6,66.2,83,30.00,7.0,NE,8.1,-,N/A,,Clear,50,2013-08-30 08:55:00
5:15 AM,71.6,66.2,83,30.01,6.0,ENE,5.8,-,N/A,,Clear,60,2013-08-30 09:15:00
5:35 AM,71.6,66.2,83,30.02,7.0,NE,4.6,-,N/A,,Clear,50,2013-08-30 09:35:00
5:55 AM,71.6,66.2,83,30.02,6.0,NE,5.8,-,N/A,,Clear,50,2013-08-30 09:55:00
6:15 AM,69.8,66.2,88,30.03,7.0,NE,5.8,-,N/A,,Clear,40,2013-08-30 10:15:00
6:35 AM,69.8,64.4,83,30.03,6.0,NE,5.8,-,N/A,,Clear,40,2013-08-30 10:35:00
6:55 AM,69.8,64.4,83,30.03,5.0,NNE,5.8,-,N/A,,Clear,30,2013-08-30 10:55:00
7:15 AM,69.8,64.4,83,30.04,5.0,NE,4.6,-,N/A,,Clear,40,2013-08-30 11:15:00
7:35 AM,69.8,66.2,88,30.04,5.0,NE,5.8,-,N/A,,Clear,40,2013-08-30 11:35:00
7:55 AM,71.6,66.2,83,30.05,7.0,NE,4.6,-,N/A,,Clear,40,2013-08-30 11:55:00
8:15 AM,71.6,66.2,83,30.05,9.0,NNE,3.5,-,N/A,,Clear,30,2013-08-30 12:15:00
8:35 AM,73.4,66.2,78,30.06,10.0,ENE,6.9,-,N/A,,Clear,60,2013-08-30 12:35:00
8:55 AM,73.4,66.2,78,30.07,10.0,ENE,8.1,-,N/A,,Partly Cloudy,60,2013-08-30 12:55:00
9:15 AM,75.2,66.2,73,30.07,10.0,ENE,8.1,-,N/A,,Mostly Cloudy,60,2013-08-30 13:15:00
9:35 AM,75.2,66.2,73,30.07,10.0,ENE,5.8,-,N/A,,Overcast,60,2013-08-30 13:35:00
9:55 AM,75.2,66.2,73,30.07,10.0,NE,9.2,-,N/A,,Overcast,50,2013-08-30 13:55:00
10:15 AM,75.2,66.2,73,30.07,10.0,NE,5.8,-,N/A,,Mostly Cloudy,40,2013-08-30 14:15:00
10:35 AM,77.0,66.2,69,30.08,10.0,NE,5.8,-,N/A,,Mostly Cloudy,40,2013-08-30 14:35:00
10:55 AM,77.0,66.2,69,30.08,10.0,East,3.5,-,N/A,,Mostly Cloudy,90,2013-08-30 14:55:00
11:15 AM,78.8,66.2,65,30.07,10.0,East,8.1,-,N/A,,Mostly Cloudy,90,2013-08-30 15:15:00
11:35 AM,78.8,66.2,65,30.06,10.0,NE,3.5,-,N/A,,Mostly Cloudy,40,2013-08-30 15:35:00
11:55 AM,80.6,66.2,61,30.06,10.0,East,9.2,-,N/A,,Mostly Cloudy,90,2013-08-30 15:55:00
12:15 PM,80.6,66.2,61,30.06,10.0,East,9.2,-,N/A,,Mostly Cloudy,90,2013-08-30 16:15:00
12:35 PM,82.4,66.2,58,30.05,10.0,ESE,5.8,-,N/A,,Partly Cloudy,110,2013-08-30 16:35:00
12:55 PM,82.4,66.2,58,30.05,10.0,East,3.5,-,N/A,,Clear,80,2013-08-30 16:55:00
1:15 PM,82.4,66.2,58,30.04,10.0,ENE,4.6,-,N/A,,Clear,60,2013-08-30 17:15:00
1:35 PM,82.4,66.2,58,30.03,10.0,ESE,4.6,-,N/A,,Clear,110,2013-08-30 17:35:00
1:55 PM,84.2,68.0,58,30.03,10.0,Calm,Calm,-,N/A,,Clear,0,2013-08-30 17:55:00
2:15 PM,82.4,66.2,58,30.03,10.0,ESE,5.8,-,N/A,,Scattered Clouds,120,2013-08-30 18:15:00
2:35 PM,84.2,66.2,55,30.02,10.0,NE,3.5,-,N/A,,Partly Cloudy,40,2013-08-30 18:35:00
2:55 PM,86.0,66.2,51,30.01,10.0,ESE,3.5,-,N/A,,Clear,110,2013-08-30 18:55:00
3:15 PM,84.2,66.2,55,30.00,10.0,SE,5.8,-,N/A,,Clear,130,2013-08-30 19:15:00
3:35 PM,87.8,68.0,52,30.00,10.0,ESE,6.9,-,N/A,,Clear,110,2013-08-30 19:35:00
3:55 PM,84.2,66.2,55,30.00,10.0,Calm,Calm,-,N/A,,Clear,0,2013-08-30 19:55:00
4:15 PM,86.0,66.2,51,29.99,10.0,ENE,3.5,-,N/A,,Partly Cloudy,70,2013-08-30 20:15:00
4:35 PM,87.8,68.0,52,29.98,10.0,ESE,5.8,-,N/A,,Clear,110,2013-08-30 20:35:00
4:55 PM,87.8,68.0,52,29.98,10.0,Calm,Calm,-,N/A,,Clear,0,2013-08-30 20:55:00
5:15 PM,87.8,66.2,49,29.98,10.0,Calm,Calm,-,N/A,,Partly Cloudy,0,2013-08-30 21:15:00
5:35 PM,86.0,68.0,55,29.98,10.0,ESE,3.5,-,N/A,,Clear,120,2013-08-30 21:35:00
5:55 PM,86.0,66.2,51,29.98,10.0,ESE,3.5,-,N/A,,Clear,120,2013-08-30 21:55:00
6:15 PM,84.2,66.2,55,29.98,10.0,East,4.6,-,N/A,,Clear,100,2013-08-30 22:15:00
6:35 PM,84.2,66.2,55,29.98,10.0,SSE,4.6,-,N/A,,Clear,150,2013-08-30 22:35:00
6:55 PM,82.4,66.2,58,29.98,10.0,SE,4.6,-,N/A,,Clear,140,2013-08-30 22:55:00
7:15 PM,80.6,68.0,65,29.98,10.0,South,4.6,-,N/A,,Clear,180,2013-08-30 23:15:00
7:35 PM,78.8,69.8,74,29.99,10.0,South,4.6,-,N/A,,Clear,190,2013-08-30 23:35:00
7:55 PM,77.0,68.0,74,29.99,10.0,South,4.6,-,N/A,,Clear,190,2013-08-30 23:55:00
8:15 PM,75.2,68.0,78,29.99,10.0,Calm,Calm,-,N/A,,Clear,0,2013-08-31 00:15:00
8:35 PM,75.2,68.0,78,29.99,10.0,Calm,Calm,-,N/A,,Clear,0,2013-08-31 00:35:00
8:55 PM,75.2,66.2,73,30.00,10.0,Calm,Calm,-,N/A,,Clear,0,2013-08-31 00:55:00
9:15 PM,75.2,66.2,73,30.00,10.0,Calm,Calm,-,N/A,,Clear,0,2013-08-31 01:15:00
9:35 PM,73.4,66.2,78,30.00,10.0,Calm,Calm,-,N/A,,Partly Cloudy,0,2013-08-31 01:35:00
9:55 PM,75.2,68.0,78,30.00,10.0,SSE,6.9,-,N/A,,Partly Cloudy,150,2013-08-31 01:55:00
10:15 PM,75.2,68.0,78,30.00,10.0,SSE,5.8,-,N/A,,Clear,160,2013-08-31 02:15:00
10:35 PM,73.4,68.0,83,30.00,10.0,SSE,4.6,-,N/A,,Clear,150,2013-08-31 02:35:00
10:55 PM,73.4,68.0,83,29.99,10.0,SSE,4.6,-,N/A,,Clear,150,2013-08-31 02:55:00
11:15 PM,73.4,68.0,83,29.99,10.0,SSE,4.6,-,N/A,,Clear,160,2013-08-31 03:15:00
11:35 PM,73.4,68.0,83,29.99,10.0,Calm,Calm,-,N/A,,Clear,0,2013-08-31 03:35:00
11:55 PM,71.6,66.2,83,29.99,10.0,Calm,Calm,-,N/A,,Clear,0,2013-08-31 03:55:00